FW6014 Weather Reports


Display with metric or nautical units.
time (UTC)temp
F
wind
direction
speed
MPH
gust
MPH
rain 1hr
in
rain 24hr
in
rain mn
in
humidity
%
barometer
mb
20200711202130 75 303 2.0 6.0 0.26 1.09 1.08 96 1006.7
20200711201627 75 72 2.0 7.0 0.26 1.09 1.08 96 1006.6
20200711201129 75 97 3.0 7.0 0.23 1.06 1.05 95 1006.7
20200711200628 75 62 3.0 7.0 0.23 1.06 1.05 95 1006.7
20200711200127 75 130 3.0 9.0 0.23 1.06 1.05 96 1006.6
20200711195626 75 75 2.0 13.0 0.23 1.06 1.05 95 1006.8
20200711195125 75 149 2.0 13.0 0.20 1.03 1.02 94 1006.9
20200711194628 76 45 1.0 8.0 0.16 0.99 0.98 93 1006.8
20200711194120 77 89 1.0 8.0 0.04 0.87 0.86 91 1006.5
20200711193619 78 17 2.0 8.0 0.00 0.83 0.82 90 1006.2
20200711193120 78 314 2.0 8.0 0.00 0.83 0.82 89 1006.3
20200711192620 79 6 2.0 10.0 0.00 0.83 0.82 88 1006.0
20200711192119 79 166 2.0 10.0 0.00 0.83 0.82 90 1006.3
20200711191619 79 319 2.0 9.0 0.00 0.83 0.82 91 1006.4
20200711191120 79 244 3.0 9.0 0.00 0.83 0.82 89 1006.7
20200711190618 79 118 3.0 10.0 0.00 0.83 0.82 87 1006.5
20200711190118 79 341 4.0 12.0 0.00 0.83 0.82 88 1006.4
20200711185618 80 79 4.0 14.0 0.00 0.83 0.82 86 1006.5
20200711185119 79 109 3.0 14.0 0.01 0.83 0.82 88 1006.6
20200711184619 78 56 3.0 11.0 0.01 0.83 0.82 87 1006.5
20200711184113 79 323 3.0 12.0 0.01 0.83 0.82 87 1006.7
20200711183613 79 91 3.0 12.0 0.01 0.83 0.82 88 1006.7
20200711183114 79 84 3.0 11.0 0.01 0.83 0.82 87 1006.8
20200711182613 79 217 3.0 10.0 0.01 0.83 0.82 88 1006.9
20200711182113 79 255 3.0 9.0 0.01 0.83 0.82 89 1007.0
20200711181615 77 68 3.0 15.0 0.01 0.83 0.82 91 1007.1
20200711181109 77 250 3.0 15.0 0.01 0.83 0.82 92 1007.1
20200711180609 76 150 3.0 8.0 0.01 0.83 0.82 92 1007.1
20200711180110 76 82 3.0 10.0 0.01 0.83 0.82 92 1007.2
20200711175609 76 76 3.0 12.0 0.01 0.83 0.82 92 1007.3
20200711175110 76 79 3.0 12.0 0.00 0.82 0.81 91 1007.5
20200711174611 76 1 3.0 9.0 0.00 0.82 0.81 91 1007.6
20200711174106 76 72 2.0 10.0 0.00 0.82 0.81 91 1007.5
20200711173606 76 60 3.0 10.0 0.00 0.82 0.81 92 1007.6
20200711173106 75 80 4.0 10.0 0.00 0.82 0.81 93 1007.6
20200711172607 75 151 3.0 10.0 0.00 0.82 0.81 93 1007.6
20200711172107 75 141 2.0 12.0 0.00 0.82 0.81 94 1007.8
20200711171606 74 67 2.0 12.0 0.00 0.82 0.81 94 1007.7
20200711171105 74 121 2.0 7.0 0.00 0.82 0.81 94 1007.7
20200711170607 74 105 2.0 7.0 0.00 0.82 0.81 94 1007.7
20200711170107 74 92 3.0 12.0 0.00 0.82 0.81 94 1007.8
20200711165607 74 94 3.0 12.0 0.00 0.82 0.81 94 1007.8
20200711165103 74 64 3.0 9.0 0.00 0.82 0.81 94 1007.7
20200711164603 74 124 3.0 9.0 0.00 0.82 0.81 93 1007.7
20200711164104 74 75 4.0 13.0 0.01 0.82 0.81 94 1007.5
20200711163605 74 76 4.0 13.0 0.02 0.82 0.81 96 1007.6
20200711163106 74 53 3.0 14.0 0.03 0.82 0.81 95 1007.7
20200711162604 73 204 3.0 14.0 0.03 0.82 0.81 96 1007.8
20200711162102 73 88 2.0 6.0 0.03 0.82 0.81 96 1007.8
20200711161602 72 101 2.0 9.0 0.03 0.82 0.81 97 1007.9
20200711161101 72 103 3.0 10.0 0.03 0.82 0.81 97 1007.9
20200711160601 71 55 3.0 9.0 0.03 0.82 0.81 98 1007.9
20200711160100 71 69 3.0 11.0 0.03 0.82 0.81 98 1008.0
20200711155601 71 58 3.0 11.0 0.03 0.82 0.81 98 1008.1
20200711155100 71 96 3.0 11.0 0.04 0.82 0.81 98 1008.1
20200711154602 71 115 2.0 10.0 0.04 0.82 0.81 98 1008.1
20200711154100 71 221 3.0 13.0 0.03 0.81 0.80 98 1008.2
20200711153601 71 112 3.0 13.0 0.02 0.80 0.79 98 1008.1
20200711153102 71 124 3.0 9.0 0.01 0.79 0.78 97 1008.1
20200711152602 71 117 2.0 9.0 0.01 0.79 0.78 97 1008.0
20200711152102 71 236 3.0 12.0 0.01 0.79 0.78 97 1008.0
20200711151601 71 91 4.0 13.0 0.01 0.79 0.78 97 1008.0
20200711151102 71 75 3.0 13.0 0.01 0.79 0.78 97 1008.0
20200711150601 71 81 3.0 11.0 0.01 0.79 0.78 97 1008.0
20200711150101 71 165 4.0 11.0 0.01 0.79 0.78 97 1008.2
20200711145600 71 76 3.0 11.0 0.01 0.79 0.78 97 1008.1
20200711145102 71 99 3.0 11.0 0.00 0.78 0.77 97 1008.2
20200711144601 71 310 4.0 11.0 0.00 0.78 0.77 97 1008.4
20200711144101 71 70 3.0 13.0 0.00 0.78 0.77 96 1008.2
20200711143601 71 91 3.0 13.0 0.00 0.78 0.77 96 1008.3
20200711143102 71 184 3.0 9.0 0.00 0.78 0.77 96 1008.3
20200711142601 71 82 3.0 9.0 0.00 0.78 0.77 96 1008.3
20200711142101 72 93 3.0 9.0 0.00 0.78 0.77 96 1008.3
20200711141602 72 308 3.0 7.0 0.00 0.78 0.77 96 1008.4
20200711141101 72 139 3.0 12.0 0.00 0.78 0.77 96 1008.4
20200711140601 71 75 4.0 15.0 0.00 0.78 0.77 96 1008.5
20200711140101 71 259 3.0 15.0 0.00 0.78 0.77 97 1008.5
20200711135602 71 147 2.0 7.0 0.00 0.78 0.77 97 1008.6
20200711135101 71 280 2.0 6.0 0.00 0.78 0.77 97 1008.6
20200711134602 71 117 2.0 9.0 0.00 0.78 0.77 97 1008.7
20200711134101 71 102 2.0 9.0 0.00 0.78 0.77 96 1008.7
20200711133600 71 240 2.0 8.0 0.01 0.78 0.77 97 1008.8
20200711133101 72 235 3.0 9.0 0.01 0.78 0.77 96 1008.8
20200711132601 71 207 3.0 10.0 0.01 0.78 0.77 97 1008.7
20200711132102 71 50 1.0 10.0 0.01 0.78 0.77 97 1008.9
20200711131603 71 106 1.0 6.0 0.01 0.78 0.77 97 1009.0
20200711131101 71 292 2.0 8.0 0.01 0.78 0.77 97 1009.1
20200711130601 71 97 3.0 9.0 0.01 0.78 0.77 97 1009.2
20200711130101 71 95 2.0 9.0 0.01 0.78 0.77 97 1009.2
20200711125600 71 83 1.0 5.0 0.01 0.78 0.77 97 1009.4
20200711125101 71 119 1.0 5.0 0.01 0.78 0.77 97 1009.4
20200711124601 71 303 2.0 9.0 0.01 0.78 0.77 97 1009.6
20200711124101 71 266 3.0 10.0 0.01 0.78 0.77 96 1009.6
20200711123602 71 103 2.0 10.0 0.00 0.77 0.76 96 1009.6
20200711123102 71 112 1.0 5.0 0.00 0.77 0.76 96 1009.7
20200711122601 71 269 1.0 7.0 0.00 0.77 0.76 96 1009.7
20200711122102 71 98 2.0 10.0 0.00 0.77 0.76 96 1009.8
20200711121600 71 146 2.0 10.0 0.00 0.77 0.76 96 1009.8
20200711121101 71 73 3.0 8.0 0.00 0.77 0.76 96 1009.9
20200711120603 71 98 3.0 12.0 0.00 0.77 0.76 96 1009.8
20200711120101 71 109 2.0 12.0 0.00 0.77 0.76 96 1009.9
20200711115601 71 218 2.0 11.0 0.00 0.77 0.76 96 1010.0
20200711115102 71 109 2.0 6.0 0.00 0.77 0.76 96 1009.9
20200711114600 71 217 2.0 6.0 0.00 0.77 0.76 96 1010.0
20200711114100 71 195 2.0 7.0 0.00 0.77 0.76 96 1010.2
20200711113600 71 81 2.0 7.0 0.00 0.77 0.76 96 1010.3
20200711113102 71 106 2.0 12.0 0.00 0.77 0.76 96 1010.4
20200711112601 71 120 2.0 12.0 0.00 0.77 0.76 96 1010.3
20200711112102 71 86 2.0 5.0 0.00 0.77 0.76 96 1010.4
20200711111601 71 193 2.0 5.0 0.00 0.77 0.76 97 1010.5
20200711111102 71 226 2.0 5.0 0.00 0.77 0.76 97 1010.5
20200711110600 71 103 1.0 5.0 0.00 0.77 0.76 97 1010.7
20200711110100 71 93 2.0 11.0 0.00 0.77 0.76 97 1010.7
20200711105602 71 143 3.0 11.0 0.00 0.77 0.76 97 1010.8
20200711105101 71 226 2.0 8.0 0.00 0.77 0.76 97 1010.9
20200711104601 71 108 2.0 8.0 0.00 0.77 0.76 97 1010.9
20200711104101 71 134 2.0 8.0 0.00 0.77 0.76 97 1010.8
20200711103601 71 105 1.0 5.0 0.01 0.77 0.76 97 1010.8
20200711103101 71 181 1.0 5.0 0.08 0.77 0.76 97 1010.8
20200711102601 71 181 2.0 8.0 0.10 0.77 0.76 97 1010.9
20200711102125 71 241 2.0 8.0 0.13 0.77 0.76 96 1010.9
20200711101601 71 122 1.0 6.0 0.14 0.77 0.76 96 1010.8
20200711101102 71 94 2.0 6.0 0.19 0.77 0.76 97 1010.7
20200711100557 71 141 2.0 6.0 0.33 0.77 0.76 96 1010.9
20200711100056 71 98 2.0 6.0 0.47 0.77 0.76 97 1010.8
20200711095554 70 39 3.0 10.0 0.48 0.77 0.76 96 1010.9
20200711095054 71 106 3.0 11.0 0.49 0.77 0.76 96 1011.1
20200711094556 71 58 2.0 11.0 0.53 0.77 0.76 96 1011.2
20200711094055 70 179 2.0 8.0 0.55 0.77 0.76 96 1011.3
20200711093552 70 104 2.0 8.0 0.55 0.76 0.75 96 1011.3
20200711093054 70 81 1.0 5.0 0.48 0.69 0.68 96 1011.7
20200711092553 70 310 1.0 5.0 0.46 0.67 0.66 96 1011.6
20200711092053 71 124 2.0 13.0 0.44 0.64 0.63 96 1011.6
20200711091048 70 288 1.0 6.0 0.40 0.57 0.56 97 1011.5
20200711090548 70 67 0.0 6.0 0.27 0.43 0.42 97 1011.8
20200711090050 70 135 0.0 1.0 0.14 0.30 0.29 97 1011.8
20200711085550 70 252 0.0 3.0 0.14 0.29 0.28 97 1011.7
20200711085050 70 288 1.0 4.0 0.14 0.28 0.27 97 1011.8
20200711084550 71 129 2.0 8.0 0.12 0.23 0.22 97 1012.0
20200711084044 71 294 2.0 8.0 0.18 0.22 0.21 96 1011.9
20200711083544 71 247 2.0 5.0 0.18 0.21 0.20 96 1011.9
20200711083045 71 284 1.0 4.0 0.18 0.21 0.20 97 1011.9
20200711082545 71 294 1.0 5.0 0.18 0.21 0.20 97 1011.9
20200711082045 71 273 1.0 5.0 0.17 0.20 0.19 96 1011.8
20200711081546 71 240 2.0 7.0 0.15 0.18 0.17 96 1011.9
20200711081040 71 176 2.0 7.0 0.14 0.17 0.16 97 1012.0
20200711080540 71 219 2.0 6.0 0.13 0.16 0.15 97 1012.0
20200711080042 70 281 1.0 6.0 0.13 0.16 0.15 98 1012.1
20200711075541 70 300 0.0 3.0 0.12 0.15 0.14 98 1012.2
20200711075040 70 283 1.0 5.0 0.11 0.14 0.13 98 1012.4
20200711074542 70 255 1.0 6.0 0.08 0.11 0.10 98 1012.4
20200711074042 70 286 0.0 6.0 0.01 0.04 0.03 98 1012.4
20200711073542 70 248 0.0 3.0 0.00 0.03 0.02 98 1012.5
20200711073040 70 235 1.0 6.0 0.00 0.03 0.02 98 1012.5
20200711072541 70 276 0.0 6.0 0.00 0.03 0.02 97 1012.7
20200711072042 70 243 0.0 2.0 0.00 0.03 0.02 98 1012.7
20200711071542 70 307 1.0 3.0 0.00 0.03 0.02 97 1012.9
20200711071040 70 282 1.0 6.0 0.00 0.03 0.02 97 1012.9
20200711070542 70 269 1.0 6.0 0.00 0.03 0.02 97 1013.2
20200711070040 70 126 1.0 6.0 0.00 0.03 0.02 97 1013.2
20200711065541 70 129 1.0 6.0 0.00 0.03 0.02 97 1013.3
20200711065041 70 280 1.0 6.0 0.00 0.03 0.02 97 1013.4
20200711064536 70 178 1.0 7.0 0.00 0.03 0.02 97 1013.5
20200711064034 70 96 1.0 7.0 0.01 0.03 0.02 97 1013.7
20200711063533 70 315 1.0 4.0 0.01 0.03 0.02 97 1013.7
20200711063034 70 226 1.0 5.0 0.01 0.03 0.02 97 1013.7
20200711062534 70 226 1.0 5.0 0.01 0.03 0.02 98 1013.8
20200711062032 70 143 1.0 5.0 0.01 0.03 0.02 98 1013.8
20200711061529 70 253 1.0 5.0 0.01 0.03 0.02 98 1013.8
20200711061031 70 257 1.0 5.0 0.01 0.03 0.02 98 1013.9
20200711060530 70 243 0.0 5.0 0.01 0.03 0.02 98 1014.0
20200711060029 70 147 0.0 3.0 0.01 0.03 0.02 97 1014.1
20200711055530 70 234 0.0 3.0 0.02 0.03 0.02 97 1014.2
20200711055029 71 167 0.0 3.0 0.02 0.03 0.02 97 1014.3
20200711054529 71 249 1.0 3.0 0.02 0.03 0.02 97 1014.4
20200711054031 71 165 1.0 3.0 0.01 0.02 0.01 97 1014.6
20200711053529 71 200 1.0 4.0 0.01 0.02 0.01 97 1014.7
20200711053030 71 186 1.0 5.0 0.01 0.02 0.01 97 1014.7
20200711052529 70 127 1.0 5.0 0.01 0.02 0.01 97 1014.8
20200711052029 70 101 1.0 6.0 0.01 0.02 0.01 98 1015.0
20200711051528 70 162 1.0 6.0 0.01 0.02 0.01 98 1015.0
20200711051029 70 219 0.0 1.0 0.01 0.02 0.01 98 1015.1
20200711050528 70 204 0.0 4.0 0.01 0.02 0.01 98 1015.1
20200711050030 70 204 0.0 4.0 0.01 0.02 0.01 98 1015.2
20200711045526 70 221 0.0 1.0 0.00 0.01 0.00 98 1015.3
20200711045026 70 238 0.0 0.0 0.00 0.01 0.00 98 1015.4
20200711044526 70 181 0.0 2.0 0.00 0.01 0.00 98 1015.4
20200711044028 70 240 0.0 2.0 0.00 0.01 0.00 98 1015.4
20200711043527 69 252 0.0 2.0 0.01 0.01 0.00 98 1015.5
20200711043027 69 211 0.0 3.0 0.01 0.01 0.00 98 1015.5
20200711042522 69 245 0.0 3.0 0.01 0.01 0.00 98 1015.7
20200711042022 69 202 0.0 3.0 0.01 0.01 0.00 98 1015.8
20200711041523 69 227 1.0 3.0 0.01 0.01 0.00 98 1015.9
20200711041023 69 174 1.0 3.0 0.01 0.01 0.00 98 1015.9
20200711040520 69 155 0.0 2.0 0.01 0.01 0.00 98 1016.0
20200711040018 69 240 0.0 2.0 0.01 0.01 0.00 98 1016.1
20200711035517 69 232 0.0 1.0 0.01 0.01 0.01 98 1016.1
20200711035015 69 232 0.0 2.0 0.01 0.01 0.01 98 1016.2
20200711034514 69 236 0.0 2.0 0.01 0.01 0.01 98 1016.3
20200711034014 69 226 0.0 1.0 0.01 0.01 0.01 98 1016.3
20200711033511 69 226 0.0 1.0 0.00 0.00 0.00 98 1016.4
20200711033009 69 226 0.0 1.0 0.00 0.00 0.00 98 1016.4
20200711032508 69 226 0.0 1.0 0.00 0.00 0.00 97 1016.5
20200711032004 69 229 0.0 1.0 0.00 0.00 0.00 97 1016.5
20200711031502 69 229 0.0 2.0 0.00 0.00 0.00 97 1016.6
20200711031003 69 231 1.0 2.0 0.00 0.00 0.00 97 1016.6
20200711030502 70 233 0.0 1.0 0.00 0.00 0.00 97 1016.6
20200711030001 70 233 0.0 1.0 0.00 0.00 0.00 96 1016.4
20200711025502 70 236 0.0 1.0 0.00 0.00 0.00 96 1016.5
20200711025001 70 236 0.0 2.0 0.00 0.00 0.00 96 1016.5
20200711024502 70 248 0.0 3.0 0.00 0.00 0.00 96 1016.6
20200711024003 70 143 0.0 3.0 0.00 0.00 0.00 95 1016.4
20200711023503 70 226 0.0 4.0 0.00 0.00 0.00 95 1016.7
20200711023001 70 232 0.0 4.0 0.00 0.00 0.00 95 1016.8
20200711022501 71 219 0.0 2.0 0.00 0.00 0.00 94 1016.8
20200711022002 71 184 0.0 4.0 0.00 0.00 0.00 94 1016.9
20200711021503 71 121 0.0 4.0 0.00 0.00 0.00 94 1016.9
20200711021002 71 204 0.0 2.0 0.00 0.00 0.00 94 1017.0
20200711020500 71 179 0.0 2.0 0.00 0.00 0.00 94 1017.1
20200711015959 71 216 0.0 2.0 0.00 0.00 0.00 94 1017.1
20200711015458 71 249 0.0 2.0 0.00 0.00 0.00 94 1017.1
20200711015001 71 190 0.0 3.0 0.00 0.00 0.00 94 1017.0
20200711014459 71 218 0.0 3.0 0.00 0.00 0.00 93 1017.2
20200711013953 71 112 0.0 2.0 0.00 0.00 0.00 93 1017.3
20200711013451 71 113 0.0 2.0 0.00 0.00 0.00 93 1017.4
20200711012949 71 320 1.0 3.0 0.00 0.00 0.00 92 1017.4
20200711012447 71 104 1.0 6.0 0.00 0.00 0.00 92 1017.4
20200711011947 71 69 1.0 6.0 0.00 0.00 0.00 91 1017.5
20200711011441 71 97 1.0 4.0 0.00 0.00 0.00 91 1017.5
20200711010938 72 110 1.0 4.0 0.00 0.00 0.00 91 1017.5
20200711010439 72 105 1.0 4.0 0.00 0.00 0.00 91 1017.5
20200711005936 72 297 1.0 3.0 0.00 0.00 0.00 91 1017.5
20200711005435 72 53 0.0 3.0 0.00 0.00 0.00 91 1017.4
20200711004935 72 77 0.0 2.0 0.00 0.00 0.00 91 1017.4
20200711004429 72 285 1.0 6.0 0.00 0.00 0.00 91 1017.4
20200711003930 72 122 1.0 6.0 0.00 0.00 0.00 91 1017.4
20200711003431 73 274 1.0 6.0 0.00 0.00 0.00 91 1017.3
20200711002930 73 81 2.0 6.0 0.00 0.00 0.00 90 1017.3
20200711002429 73 88 2.0 8.0 0.00 0.00 0.00 90 1017.3
20200711001929 73 79 1.0 8.0 0.00 0.00 0.00 90 1017.3
20200711001427 73 288 1.0 5.0 0.00 0.00 0.00 90 1017.3
20200711000925 73 84 1.0 5.0 0.00 0.00 0.00 90 1017.4
20200711000422 73 98 1.0 3.0 0.00 0.00 0.00 89 1017.5
20200710235923 74 61 1.0 5.0 0.00 0.00 0.00 89 1017.5
20200710235423 74 240 1.0 5.0 0.00 0.00 0.00 89 1017.7
20200710234922 74 51 0.0 2.0 0.00 0.00 0.00 89 1017.5
20200710234419 74 89 1.0 3.0 0.00 0.00 0.00 88 1017.5
20200710233918 75 317 0.0 3.0 0.00 0.00 0.00 88 1017.4
20200710233419 75 302 0.0 3.0 0.00 0.00 0.00 87 1017.4
20200710232918 75 115 0.0 3.0 0.00 0.00 0.00 87 1017.4
20200710232417 75 303 1.0 3.0 0.00 0.00 0.00 86 1017.4
20200710231916 76 277 1.0 4.0 0.00 0.00 0.00 85 1017.3
20200710231415 76 309 1.0 5.0 0.00 0.00 0.00 85 1017.3
20200710230913 76 266 1.0 5.0 0.00 0.00 0.00 84 1017.3
20200710230411 76 252 1.0 6.0 0.00 0.00 0.00 84 1017.3
20200710225907 76 46 2.0 7.0 0.00 0.00 0.00 83 1017.3
20200710225408 77 319 2.0 7.0 0.00 0.00 0.00 82 1017.3
20200710224909 77 299 1.0 5.0 0.00 0.00 0.00 81 1017.5
20200710224402 77 200 1.0 3.0 0.00 0.00 0.00 81 1017.4
20200710223901 77 285 1.0 3.0 0.00 0.00 0.00 81 1017.4
20200710223402 78 285 1.0 4.0 0.00 0.00 0.00 80 1017.5
20200710222901 78 91 1.0 7.0 0.00 0.00 0.00 79 1017.5
20200710222401 78 241 1.0 7.0 0.00 0.00 0.00 79 1017.5
20200710221901 78 296 2.0 7.0 0.00 0.00 0.00 78 1017.5
20200710221402 79 89 2.0 7.0 0.00 0.00 0.00 76 1017.8
20200710220902 79 120 2.0 7.0 0.00 0.00 0.00 75 1017.7
20200710220401 79 276 1.0 7.0 0.00 0.00 0.00 73 1017.9
20200710215901 80 319 2.0 9.0 0.00 0.00 0.00 72 1017.9
20200710215402 80 103 2.0 9.0 0.00 0.00 0.00 73 1017.9
20200710214902 81 320 2.0 6.0 0.00 0.00 0.00 72 1018.0
20200710214402 81 211 2.0 6.0 0.00 0.00 0.00 71 1018.0
20200710213900 81 57 2.0 6.0 0.00 0.00 0.00 69 1017.9
20200710213401 81 292 2.0 6.0 0.00 0.00 0.00 69 1017.8
20200710212900 81 236 2.0 7.0 0.00 0.00 0.00 69 1018.0
20200710212400 81 67 2.0 7.0 0.00 0.00 0.00 70 1018.1
20200710211859 82 242 2.0 7.0 0.00 0.00 0.00 68 1018.0
20200710211358 83 307 3.0 10.0 0.00 0.00 0.00 67 1017.9
20200710210858 83 207 3.0 14.0 0.00 0.00 0.00 64 1018.1
20200710210357 83 63 3.0 14.0 0.00 0.00 0.00 61 1018.0
20200710205857 83 118 4.0 12.0 0.00 0.00 0.00 62 1018.0
20200710205357 83 221 4.0 12.0 0.00 0.00 0.00 62 1017.9
20200710204857 84 287 3.0 6.0 0.00 0.00 0.00 66 1018.0
20200710204359 84 247 2.0 6.0 0.00 0.00 0.00 69 1017.9
20200710203853 84 80 1.0 8.0 0.00 0.00 0.00 67 1018.0
20200710203355 84 285 1.0 8.0 0.00 0.00 0.00 69 1018.1
20200710202855 84 79 2.0 8.0 0.00 0.00 0.00 69 1018.1